Regional Weather Roundup
Issued by NWS Cleveland, OH

Home | Current Version | Previous Version | Graphics & Text | Print | Product List | Glossary On
Versions: 1 2 3 4 5 6 7 8 9 10 11 12 13 14 15 16 17 18 19 20 21 22 23 24 25 26 27 28 29 30 31 32 33 34 35 36 37 38 39 40 41 42 43 44 45 46 47 48 49 50
000
ASUS41 KCLE 282000
RWRCLE
OHIO REGIONAL WEATHER ROUNDUP
NATIONAL WEATHER SERVICE WILMINGTON, OH
300 PM EST WED JAN 28 2015

NOTE: "FAIR" INDICATES FEW OR NO CLOUDS BELOW 12,000 FEET WITH NO
SIGNIFICANT WEATHER AND/OR OBSTRUCTIONS TO VISIBILITY.

OHZ001>008-015>018-024>027-034-035-043-044-282100-
   NORTHWEST OHIO

CITY           SKY/WX    TMP DP  RH WIND       PRES   REMARKS
DEFIANCE       PTSUNNY   25  10  53 S7        30.29F WCI  17
FINDLAY        SUNNY     24  14  65 SE9       30.27F WCI  14
TOLEDO EXPRESS FAIR      24  11  57 S6        30.29F WCI  17
TOLEDO EXEC    SUNNY     25  13  60 S9        30.31F WCI  15
LIMA           MOSUNNY   26  15  63 SE9       30.26F WCI  17
$$

OHZ009>014-019>023-028>033-038-089-282100-
   NORTHEAST OHIO

CITY           SKY/WX    TMP DP  RH WIND       PRES   REMARKS
CLE-HOPKINS    MOSUNNY   26  10  50 SW6       30.33F WCI  19
CLE-LAKEFRONT  FAIR      22  16  78 NW5       30.32F WCI  16
CUY CO. ARPT   MOSUNNY   28  18  64 NW7       30.30F WCI  21
LORAIN-ELYRIA  SUNNY     24  14  65 SW6       30.31F WCI  17
ASHTABULA      SUNNY     24  -1  33 W5        30.30S WCI  18
AKRON-CANTON   MOSUNNY   24  10  55 SW6       30.29F WCI  17
WOOSTER        NOT AVBL
MANSFIELD      SUNNY     25  10  53 S7        30.27F WCI  17
YOUNGSTOWN     MOSUNNY   26   2  35 CALM      30.28F
$$

OHZ042-051>053-060>062-070>072-077>081-282100-
  SOUTHWEST OHIO

CITY           SKY/WX    TMP DP  RH WIND       PRES   REMARKS
CINC-COVINGTON MOSUNNY   35  18  49 SE9       30.26F WCI  28
CINC-LUNKEN    MOSUNNY   34  18  52 S10       30.31F WCI  26
HAMILTON       MOSUNNY   35  18  49 VRB7      30.29F WCI  29
DAYTON         NOT AVBL
WRIGHT-PAT AFB PTSUNNY   29  15  55 SE8       30.28F WCI  21
DAYTON GENERAL PTSUNNY   30  17  58 S7        30.26F WCI  23
WILMINGTON     MOSUNNY   29  17  61 S7        30.27F WCI  22
$$

OHZ036-037-039>041-045>050-054>059-063>069-073>076-082>088-282100-
  CENTRAL AND SOUTHEAST OHIO

CITY           SKY/WX    TMP DP  RH WIND       PRES   REMARKS
COLUMBUS       PTSUNNY   25  13  60 SE3       30.31F
OSU AIRPORT    SUNNY     26  13  57 SE7       30.30F WCI  18
BOLTON FIELD   SUNNY     25  16  68 MISG      30.32F
RICKENBACK AFB NOT AVBL
NEWARK         SUNNY     24  13  62 SW6       30.32F WCI  17
MARION         SUNNY     23  13  65 SE7       30.29F WCI  15
LANCASTER      SUNNY     29  15  56 CALM      30.32F
ZANESVILLE     SUNNY     27   8  44 CALM      30.33S HAZE
NEW PHILLY     SUNNY     25   9  50 E5        30.33S WCI  19
$$



USA.gov is the U.S. government's official web portal to all federal, state and local government web resources and services.